Dewpoint
58 43 46 44 43 43 35 36 30 24 29 19 18 23 14 20 21 21 16 20 18 21 23 24 23 23 23 18 21 15 17 16 17 19 28 43 54 56 63 60 61 63 66 65 68 70 72 72 73 73 73 73 73 72 72 72 72 71 71 71 71 71 71 71 71 70 70 69 70 70 69 69 69 69 69 70 70 70 70 71 71 71 70 70 70 70 70 69 68 67 66 65 63 64 64 64 64
44 44 45 43 45 40 35 31 29 15 22 15 17 15 17 17 23 18 17 19 20 21 24 24 24 24 25 25 21 20 17 19 20 21 29 40 49 53 62 62 59 63 65 65 67 68 70 72 72 73 73 73 73 73 72 72 72 71 71 71 71 70 71 71 71 70 70 69 69 68 68 68 68 68 69 69 69 69 69 70 71 70 71 70 70 70 69 69 67 66 66 64 62 61 63 63 63
42 43 38 41 39 40 34 29 26 18 20 10 14 16 17 18 17 18 19 20 21 23 24 24 25 23 23 23 21 17 17 21 21 24 30 42 43 52 58 62 62 64 65 66 64 67 69 70 71 73 73 73 73 73 72 72 72 72 71 71 71 70 71 71 71 70 69 69 69 68 68 68 68 68 68 68 69 68 69 69 70 70 70 70 70 69 69 68 67 67 65 63 61 60 61 62 63
49 48 40 39 38 33 30 23 26 15 19 14 12 17 20 18 17 19 21 22 23 24 23 21 21 23 24 16 17 20 19 21 26 29 30 40 50 53 56 59 63 62 66 66 65 67 69 71 71 73 73 73 73 73 72 72 72 72 71 71 71 71 71 71 71 70 70 69 69 69 68 68 68 69 69 68 69 68 68 69 70 70 69 69 68 68 68 68 67 67 65 62 61 60 60 62 63
49 49 41 40 41 33 32 28 18 14 8 12 14 16 17 17 17 19 21 24 24 24 22 20 21 21 23 22 23 20 22 25 30 35 41 55 58 56 59 63 62 60 65 65 65 65 70 70 71 72 73 72 73 72 73 72 72 71 71 71 71 70 71 71 71 71 70 69 69 69 68 69 69 68 68 69 69 68 68 68 70 69 69 68 67 67 67 67 67 66 63 61 60 59 60 61 62
45 43 46 40 37 30 24 17 17 15 17 17 10 13 13 14 16 19 21 23 23 23 22 21 20 19 21 21 23 25 31 24 30 47 53 52 60 61 60 63 60 59 63 66 65 65 72 69 71 72 73 73 72 72 72 72 72 72 71 71 70 71 70 71 71 71 70 70 69 69 68 69 69 68 69 69 68 68 68 68 69 69 67 67 66 66 67 65 66 64 62 61 60 59 60 60 61
40 38 37 36 34 37 30 19 15 13 16 17 12 12 14 16 18 19 19 18 22 18 22 19 21 19 16 20 24 33 40 38 33 51 58 60 63 64 64 60 61 58 63 65 65 66 72 69 72 73 73 72 72 72 72 72 72 71 71 71 71 71 70 71 71 71 70 69 69 69 69 69 69 69 69 68 68 68 68 69 69 68 67 66 66 66 67 67 66 64 63 61 59 58 59 60 61
45 43 35 33 31 25 23 19 19 16 14 20 18 14 16 19 20 20 18 20 14 17 14 18 21 19 16 21 22 34 39 50 55 54 57 60 64 64 65 61 60 59 62 65 66 69 69 69 71 72 73 72 72 72 72 72 71 71 71 71 70 71 71 71 71 71 70 69 69 69 69 69 69 69 69 68 68 68 68 68 69 68 67 66 65 65 67 67 66 65 63 61 58 57 58 59 59
40 35 41 39 25 28 18 17 19 15 15 17 15 24 31 24 23 19 15 14 13 14 15 15 18 18 14 19 25 32 31 43 53 54 56 60 62 64 63 64 64 64 64 64 65 70 71 68 70 71 72 73 73 72 72 72 71 71 71 71 71 70 71 71 71 71 70 69 69 69 69 69 69 69 69 68 68 68 68 68 68 67 67 66 66 66 67 67 66 65 63 61 59 58 57 58 59
36 33 26 30 31 21 19 20 14 15 15 19 17 17 19 20 19 21 14 14 15 15 17 21 18 10 13 17 23 26 30 39 44 51 57 61 61 62 62 64 65 65 63 65 65 64 70 69 68 69 70 72 73 73 73 72 72 71 72 71 71 71 71 70 71 71 70 69 69 69 68 68 69 69 69 68 68 68 69 68 68 68 67 66 65 65 66 66 65 64 63 61 59 58 58 57 58
32 27 36 29 20 19 21 15 19 19 17 17 17 20 20 20 19 16 17 16 17 16 18 20 17 13 13 19 25 29 32 38 45 48 56 60 63 62 61 63 64 65 64 67 65 65 69 70 67 67 69 70 71 72 72 72 72 72 71 71 71 70 70 71 71 71 70 69 69 69 68 69 69 69 68 69 68 69 68 68 67 67 66 65 65 66 66 66 65 64 63 61 60 59 58 57 58
26 26 33 26 22 17 12 16 19 18 18 18 17 19 20 20 19 16 16 16 17 17 18 19 18 18 15 16 26 26 26 32 44 51 56 57 58 62 63 63 64 64 65 65 65 64 64 69 70 68 65 66 69 71 71 71 72 71 71 71 71 71 70 70 70 71 70 69 69 69 70 69 69 69 68 69 68 68 68 68 67 67 66 65 66 67 66 65 64 63 62 61 60 59 58 57 57
31 29 19 19 20 15 22 18 18 20 20 16 17 19 20 19 17 16 17 18 17 17 19 20 20 20 15 15 23 22 26 30 39 49 55 57 57 59 62 63 64 65 64 65 64 65 66 65 66 69 69 64 65 66 69 70 70 71 71 71 71 71 70 70 70 70 70 69 70 70 70 70 69 69 69 68 68 68 68 67 67 67 66 66 66 66 66 65 64 63 62 61 60 59 58 56 56
39 33 27 22 23 15 13 15 22 19 15 18 18 19 20 18 18 18 18 18 18 18 21 22 21 20 19 17 22 20 27 31 36 46 53 57 57 59 61 62 64 64 65 65 65 65 66 67 66 66 70 70 70 68 65 68 69 70 71 70 70 71 71 70 70 70 70 71 70 70 69 70 70 70 69 69 68 68 68 68 67 67 66 66 65 66 65 64 63 63 62 61 60 59 57 55 55
28 28 18 26 16 14 18 19 17 15 17 19 19 19 19 20 19 20 20 19 19 21 22 22 24 21 16 17 17 30 30 31 36 41 52 54 52 55 59 58 59 61 62 63 65 65 65 66 65 67 68 67 67 69 69 72 66 68 69 69 70 70 70 70 70 69 69 69 69 68 68 67 67 67 68 68 68 67 67 67 68 68 66 65 66 65 65 64 63 62 62 61 60 58 56 54 54
37 30 22 20 13 11 20 18 22 17 19 19 20 20 19 20 21 19 22 21 21 27 23 20 22 20 21 21 28 30 30 32 34 38 44 51 52 48 48 50 49 50 52 54 55 61 64 65 66 66 67 66 66 67 68 70 66 66 67 67 68 68 69 69 68 67 66 65 65 65 63 65 64 67 63 67 65 67 66 66 67 67 66 66 66 66 65 64 63 62 62 61 59 57 54 52 52
36 35 13 14 15 10 19 11 16 12 20 22 20 19 17 19 22 22 23 23 20 21 21 22 22 24 25 27 30 31 31 32 36 36 40 39 43 42 42 44 45 44 47 48 49 50 59 63 64 66 66 66 66 65 66 68 71 64 65 65 66 67 68 67 67 63 60 59 61 60 61 71 68 69 69 68 63 68 63 63 66 67 66 67 66 65 65 64 63 63 61 60 58 55 53 54 54
33 26 16 12 12 8 18 14 15 23 20 20 20 21 20 18 22 23 23 21 21 20 21 24 26 28 29 30 31 32 33 33 32 33 35 38 38 36 38 39 40 42 45 46 47 46 49 55 63 64 66 66 65 66 66 67 71 68 70 70 69 68 65 63 67 70 67 69 63 66 68 66 65 66 66 66 67 67 66 61 64 66 67 67 66 65 65 64 63 63 62 60 58 56 55 51 48
31 15 11 13 12 21 21 21 20 20 20 20 22 23 22 21 21 23 20 19 20 19 21 22 25 28 29 29 30 31 31 33 33 33 34 36 36 34 37 42 42 42 45 47 48 46 48 49 52 59 64 66 66 66 66 66 66 68 68 68 69 65 67 69 68 68 68 68 68 68 65 64 65 65 65 69 67 62 68 59 63 65 65 65 65 65 65 64 63 62 62 60 58 59 59 57 52
23 27 18 17 21 19 23 22 22 23 22 21 21 22 22 22 22 24 20 18 20 18 19 20 20 26 27 29 30 31 31 32 35 35 35 36 38 37 38 39 40 45 45 47 49 49 50 49 50 52 61 65 66 65 65 65 65 66 66 66 67 68 67 68 68 68 68 68 68 66 64 64 66 66 60 61 65 67 64 59 60 62 62 63 63 64 64 65 64 63 62 61 60 59 57 55 52
28 24 20 19 14 18 20 22 23 22 23 23 22 24 22 23 24 23 20 19 17 18 23 22 20 26 28 29 31 31 31 32 33 35 35 36 38 39 39 40 42 43 47 48 50 48 50 51 52 51 56 63 65 65 65 64 65 65 65 65 66 67 68 68 66 67 67 68 68 66 65 65 66 65 66 66 66 63 65 67 67 67 66 66 61 65 63 64 62 62 60 60 58 59 57 56 55
28 20 20 19 16 22 21 23 25 24 25 23 23 20 20 24 23 22 21 18 17 22 26 28 27 28 29 29 30 32 31 32 32 34 35 37 39 39 40 42 42 44 47 48 50 49 51 53 54 54 52 59 64 64 64 64 65 64 65 64 64 64 68 67 66 67 65 66 66 65 64 64 64 64 64 64 64 62 63 64 65 65 65 66 65 67 65 63 62 62 61 60 58 58 57 56 55
23 21 23 23 24 23 23 24 26 25 23 22 21 22 23 21 20 21 21 19 24 28 29 29 28 29 29 30 31 31 33 33 32 34 35 37 39 40 41 41 41 42 48 49 50 49 53 53 53 54 54 57 62 63 63 64 64 64 64 65 64 60 64 67 68 69 69 68 67 67 67 66 66 65 63 64 63 63 61 61 62 64 65 64 63 64 63 62 62 62 62 61 59 58 57 55 54
23 19 23 23 25 21 23 23 27 25 23 22 22 23 21 21 20 21 20 27 28 28 29 28 29 29 29 29 31 32 33 33 33 34 36 37 39 39 43 42 42 45 48 48 50 52 54 53 53 54 53 55 62 63 62 61 63 64 66 65 65 64 64 64 66 65 67 67 67 66 66 66 66 66 65 63 64 64 63 62 61 61 62 63 62 62 62 62 62 63 62 64 60 58 57 55 53
23 22 23 26 24 23 24 24 24 24 23 23 24 22 21 21 20 21 20 27 28 28 28 29 28 29 29 29 29 31 32 34 33 34 36 39 40 41 44 43 44 45 46 49 51 53 54 54 55 54 52 54 59 60 61 61 63 64 65 65 66 64 64 65 65 64 65 66 67 66 65 65 65 66 67 67 64 63 64 64 64 63 63 63 62 61 61 61 61 62 61 60 60 58 57 56 55
23 22 22 23 22 23 23 24 24 24 23 23 23 22 21 21 21 20 20 27 28 28 28 28 28 28 28 29 29 30 30 32 35 34 35 39 40 39 42 43 44 44 47 50 52 52 52 52 55 53 51 55 58 59 61 61 62 64 65 64 64 64 63 63 63 62 62 63 64 65 64 64 65 65 66 69 68 66 65 65 63 63 62 63 63 62 61 60 61 61 61 60 59 58 58 56 55
24 23 23 23 23 23 23 22 22 22 23 22 21 21 20 21 20 18 26 27 28 27 27 27 27 27 28 28 29 30 30 32 33 35 36 38 38 39 40 42 43 45 48 50 50 51 51 53 57 55 56 59 60 61 64 62 62 62 62 61 61 61 61 61 61 61 61 60 61 62 63 63 63 63 64 64 65 66 66 64 64 63 63 63 63 62 61 61 59 59 59 58 57 57 56 54 54
23 23 23 23 23 24 23 23 23 22 22 22 21 21 21 21 22 19 24 27 27 26 26 26 27 27 27 28 29 32 31 32 33 35 36 36 37 37 39 41 43 44 49 47 48 50 52 54 58 60 61 62 61 62 61 60 59 59 59 58 58 58 57 57 58 58 57 58 59 61 61 62 62 62 62 62 62 62 62 61 61 60 60 60 60 60 59 58 57 57 56 57 56 57 57 55 56
23 23 24 25 25 24 24 23 22 23 22 21 21 20 19 20 20 22 26 26 26 25 26 26 27 27 29 28 29 29 30 32 33 34 35 36 36 38 38 41 42 44 47 47 48 50 51 55 57 58 58 59 58 58 59 57 56 55 55 55 55 56 55 55 55 55 55 56 59 59 60 60 60 60 60 60 60 61 61 60 60 59 60 60 59 59 58 58 58 57 56 57 57 58 58 55 55
25 25 24 24 23 23 23 22 22 21 21 21 21 19 18 19 20 21 25 25 25 25 25 25 26 27 28 28 29 30 31 32 33 36 35 36 36 38 39 42 41 43 45 47 47 49 54 56 56 56 55 54 52 52 53 53 52 51 51 51 50 52 52 51 51 52 53 53 54 56 58 58 58 59 59 58 58 59 59 59 58 58 58 59 60 58 57 58 57 56 56 56 55 56 55 54 54
25 24 24 25 24 21 23 23 23 21 21 21 21 22 17 20 20 22 23 25 25 23 24 25 26 26 28 30 29 30 31 32 32 33 35 36 35 37 39 41 41 42 44 45 47 49 52 53 53 51 51 50 48 47 47 47 48 47 46 47 46 47 48 47 47 48 49 50 51 51 53 54 57 58 58 57 57 57 57 58 58 57 57 56 56 57 56 56 56 55 56 55 54 54 54 52 53
24 23 23 27 25 22 23 23 23 22 20 21 21 23 20 19 20 21 23 24 23 22 23 24 25 26 27 28 27 28 30 32 33 33 34 35 35 37 38 39 41 42 43 44 46 49 50 50 50 48 47 46 45 45 44 43 43 44 44 45 44 45 44 45 44 45 45 46 47 49 50 50 52 55 56 56 55 55 55 54 54 55 56 55 55 55 55 54 54 53 53 54 54 54 54 52 51
25 24 26 25 26 25 22 23 23 23 20 21 21 19 20 19 20 21 22 23 22 22 23 25 25 26 26 26 27 28 30 32 32 32 34 35 36 36 36 38 40 40 42 42 45 48 48 49 48 46 45 44 43 42 42 42 41 41 40 40 41 42 42 42 42 43 43 44 44 45 46 47 48 49 52 54 54 53 52 51 51 52 52 52 52 52 52 53 53 52 49 50 52 51 49 49 48
26 28 24 27 23 22 20 23 24 28 21 20 21 20 20 19 20 22 22 22 21 20 22 24 26 26 26 27 26 27 28 31 31 32 33 34 36 35 36 40 40 39 41 42 45 47 47 47 46 44 43 42 41 41 41 40 40 40 39 39 39 39 40 39 40 40 41 42 42 42 44 44 45 46 47 48 48 48 48 48 49 49 49 49 49 49 49 50 51 50 48 48 50 47 44 44 43
25 28 27 22 21 22 21 22 23 23 22 21 21 20 20 21 19 21 22 21 21 21 21 23 25 26 27 26 26 26 28 30 30 31 33 34 36 35 36 39 40 40 40 41 44 47 47 46 45 44 43 42 41 41 41 40 39 38 38 38 37 37 37 37 38 38 39 39 40 41 42 41 42 44 44 44 44 44 44 44 44 45 45 45 45 46 48 51 51 50 50 46 44 44 42 42 42
24 23 22 23 24 22 22 23 24 23 23 22 22 22 22 23 23 20 23 23 22 21 22 25 25 25 26 26 27 27 28 28 32 33 35 35 36 36 35 37 39 40 39 41 43 45 45 45 44 44 43 42 42 41 41 40 39 39 38 37 36 35 35 35 35 35 36 37 38 39 40 41 41 41 43 42 42 42 42 42 42 43 43 43 43 43 43 44 45 46 45 45 44 42 42 41 41
25 28 27 24 23 23 24 25 25 24 23 23 23 23 23 24 24 23 24 24 24 22 24 26 26 26 26 26 27 28 29 29 36 36 36 36 38 37 36 37 39 38 39 41 43 43 44 44 44 42 43 43 42 42 41 40 38 37 36 34 33 33 33 33 33 33 33 33 35 35 36 37 39 39 40 41 41 40 41 41 41 41 41 41 41 41 42 42 43 44 44 43 42 40 40 40 40
25 26 27 24 28 24 25 25 25 25 24 24 24 24 25 25 25 25 23 24 23 23 25 25 26 26 27 28 29 29 28 34 35 34 34 36 37 39 38 37 39 40 38 40 41 41 42 43 42 41 41 40 40 40 39 38 37 36 34 32 31 31 32 31 31 30 31 33 32 32 32 33 34 35 36 38 38 38 38 38 39 39 38 38 38 39 39 40 40 40 42 41 41 39 38 39 40
27 25 26 27 26 28 26 25 25 24 24 23 24 24 24 24 25 26 24 24 23 23 25 25 26 27 28 29 29 29 30 32 32 32 34 35 38 37 37 37 37 37 37 38 40 41 41 41 41 40 40 40 40 38 38 36 35 35 33 32 30 29 30 30 30 29 29 28 29 29 29 30 31 31 32 33 35 35 35 35 36 36 37 36 36 36 36 37 38 38 38 39 38 38 37 38 37
26 27 27 26 29 28 26 25 25 24 24 25 26 25 25 26 27 27 28 26 26 31 30 32 28 27 27 27 28 29 29 31 31 31 32 34 37 37 37 36 36 37 37 36 37 38 39 39 39 39 38 38 38 37 36 35 34 33 32 31 31 29 28 28 27 25 25 26 26 26 27 27 28 27 28 29 30 30 31 30 30 31 31 31 30 30 32 33 33 34 36 37 37 32 34 35 34
30 30 28 27 28 28 27 24 25 25 25 26 25 26 26 27 27 27 28 28 28 29 29 29 32 32 30 32 31 30 28 30 30 31 31 32 34 35 36 35 37 37 37 37 36 35 37 38 38 38 37 36 35 34 33 33 32 31 30 30 29 28 27 25 23 21 21 22 22 23 23 25 26 25 26 26 26 28 28 28 27 25 26 25 23 22 23 27 28 28 30 31 32 28 27 31 31
27 31 29 27 27 26 25 26 26 25 28 26 26 27 28 29 29 29 27 27 27 27 28 28 28 30 31 29 30 30 32 31 31 30 31 33 33 34 35 36 36 35 35 34 35 35 37 37 37 37 37 35 34 34 33 32 31 30 29 28 26 24 22 21 19 17 17 18 19 21 23 23 24 24 25 25 25 25 26 26 26 24 23 22 24 22 20 23 27 27 27 25 26 28 22 22 21
28 27 29 27 26 27 27 27 29 27 27 28 27 27 26 28 27 25 26 26 26 27 27 27 28 28 28 28 29 29 30 30 31 31 32 32 33 35 35 35 35 33 33 33 34 35 36 37 37 37 36 36 37 36 34 32 32 31 29 28 26 23 20 20 18 17 16 16 18 18 20 22 23 23 24 24 24 24 25 26 25 24 22 21 21 21 22 22 24 26 26 23 21 24 23 18 18
27 35 33 29 27 28 29 29 30 29 33 31 27 28 27 28 29 30 25 25 25 26 26 27 27 27 26 26 28 29 29 29 31 30 31 32 33 34 33 33 32 32 32 32 33 34 35 35 35 35 34 34 34 32 32 31 29 28 27 26 23 21 20 19 18 16 17 17 15 15 17 19 22 22 23 24 24 24 24 24 24 23 22 21 20 21 23 23 24 25 25 25 22 20 22 18 18
31 34 34 31 28 30 31 31 30 31 29 28 27 31 26 26 28 28 26 26 26 25 26 26 26 26 26 27 27 28 28 30 30 31 31 31 32 32 30 30 29 30 32 32 32 32 33 32 32 32 31 30 30 29 29 29 28 27 25 23 21 21 19 19 17 18 18 17 17 16 14 15 17 22 22 23 24 24 23 24 24 23 23 22 20 24 23 25 25 25 24 24 25 21 20 22 18
36 35 33 33 33 32 32 30 31 30 28 27 29 29 27 26 29 26 27 26 25 25 26 26 26 26 26 26 27 27 27 30 30 30 30 31 30 29 29 28 28 30 30 31 31 31 31 30 29 29 28 27 27 27 27 27 26 24 23 23 22 19 18 17 18 18 18 19 17 16 15 14 14 15 18 23 23 23 24 24 24 22 21 21 22 23 24 23 24 25 25 24 25 23 22 22 21
34 33 32 32 32 32 30 30 28 28 26 27 29 29 27 26 30 28 27 28 26 25 25 25 26 27 25 26 27 28 27 29 29 29 29 29 29 28 27 27 27 29 29 29 31 30 30 29 27 26 25 24 24 25 26 26 25 24 23 23 22 21 21 20 17 17 16 16 15 15 14 16 15 14 15 19 23 23 22 22 22 22 21 21 20 21 22 21 20 21 22 23 24 24 23 22 21
34 32 31 31 30 28 28 29 28 27 27 29 29 29 28 26 27 29 26 24 24 24 24 24 25 25 26 26 26 26 27 28 28 27 27 27 26 26 26 25 27 28 28 29 30 30 29 28 26 25 24 24 24 25 25 26 25 25 25 24 23 22 21 21 18 18 17 17 15 13 12 14 14 16 16 19 21 22 21 22 21 21 21 22 21 21 23 22 20 20 22 22 22 23 24 21 20
34 30 30 29 29 26 25 26 24 25 26 24 25 30 28 26 27 26 23 24 24 26 25 25 25 25 26 26 26 26 28 28 27 27 27 27 27 26 26 25 26 27 28 29 29 29 27 26 25 24 23 23 23 24 25 26 26 25 25 24 24 22 22 21 20 19 19 17 15 14 14 13 14 16 16 18 22 22 20 21 21 20 20 22 23 23 24 24 22 20 22 23 23 22 23 24 21
29 29 29 29 28 28 26 26 26 25 26 23 23 28 26 26 25 27 27 25 25 27 29 29 26 26 26 26 27 26 28 28 28 28 28 27 27 27 26 25 26 27 26 27 27 27 26 25 24 23 23 23 23 23 23 23 23 23 23 23 23 21 21 21 19 18 18 17 18 15 13 13 15 17 18 19 20 21 21 21 22 22 22 22 23 23 22 22 23 19 21 21 20 19 23 23 22
28 33 31 30 29 28 26 26 25 26 25 22 26 25 24 24 24 24 25 26 26 27 28 30 28 27 27 27 28 28 27 27 27 28 28 27 27 27 26 26 26 26 25 26 25 26 25 23 23 22 22 22 22 23 23 23 23 22 22 22 21 20 20 19 19 21 18 19 18 17 15 15 15 16 18 20 21 21 20 21 21 21 22 21 20 22 23 20 22 19 18 21 19 20 22 21 21
31 33 34 30 30 32 28 26 24 24 23 22 24 24 24 24 25 27 27 27 26 27 28 28 26 26 28 27 27 27 26 26 27 27 27 27 26 26 26 25 25 24 23 25 24 25 26 24 22 22 21 22 22 22 22 21 21 20 22 20 20 19 19 19 20 20 19 20 19 18 17 17 17 17 19 20 20 22 22 21 20 20 21 21 20 20 20 19 22 19 17 19 20 22 21 22 19
30 31 29 30 32 31 29 27 24 24 25 25 25 23 25 23 22 25 24 25 25 26 26 26 26 26 28 27 27 27 26 27 27 27 27 26 26 26 25 24 24 23 23 24 24 25 25 23 22 21 21 22 21 21 21 21 21 21 22 21 20 20 19 19 20 22 21 21 21 20 19 19 18 18 22 20 20 20 20 21 20 20 20 21 21 20 20 20 21 19 18 21 19 19 20 21 20
31 28 30 33 32 32 29 27 26 24 24 25 25 23 22 22 23 26 25 24 24 25 26 26 26 27 26 28 28 27 27 27 27 27 26 26 25 25 25 25 23 23 23 22 23 25 24 24 21 21 21 21 21 20 20 20 20 21 21 21 21 21 21 22 23 22 22 20 20 20 20 20 19 21 22 23 22 21 20 20 20 20 20 20 20 19 20 20 21 17 19 17 19 19 19 17 19
31 32 35 30 27 27 28 27 25 25 25 24 23 22 23 24 24 22 24 24 24 24 26 26 25 26 27 27 27 27 27 27 26 26 26 25 25 25 24 23 22 22 22 21 23 25 25 23 21 20 20 20 21 22 21 22 22 25 25 23 22 21 21 21 22 21 22 21 21 20 20 20 21 21 20 22 20 19 18 18 18 17 17 17 17 17 17 17 18 15 14 14 16 16 14 14 16
32 32 31 34 29 28 27 27 28 26 24 25 26 23 22 27 24 23 22 23 25 24 26 26 26 25 26 26 27 27 27 27 27 26 26 26 25 24 23 22 21 21 21 21 23 24 22 22 20 20 20 21 21 21 21 21 24 24 23 22 22 22 22 22 22 22 21 21 21 21 21 20 20 19 20 19 17 16 16 15 14 13 14 14 15 14 15 15 14 13 12 14 12 13 12 12 13
27 29 28 30 30 30 26 28 27 25 24 23 23 23 24 25 24 23 23 22 24 24 26 28 27 26 26 26 27 28 28 28 27 26 25 26 25 23 23 22 21 21 22 22 23 22 22 21 20 20 19 20 20 20 21 21 21 22 21 20 21 21 21 22 22 22 21 21 21 21 20 19 17 17 16 15 14 14 13 13 13 13 12 13 13 13 12 11 11 10 8 11 13 10 8 8 10
29 29 28 29 28 27 25 25 29 27 25 24 23 23 26 26 23 24 22 22 24 27 28 28 28 27 26 27 28 28 29 28 27 26 26 26 24 23 22 22 22 21 22 21 21 21 21 21 21 20 20 19 19 19 20 21 21 20 20 20 20 20 21 22 21 20 20 20 19 19 18 16 15 16 15 15 14 15 12 11 11 10 11 10 11 10 10 8 6 7 5 14 14 8 6 6 7